Location: Namasale
(1.5000°N, 32.6167°E)
Time: 19:31:45
(UTC+00:00)

Courier 1B - All Passes

Search period start: 19 April 2021 00:00
Search period end: 29 April 2021 00:00
Orbit: 962 x 1209 km, 28.3° (Epoch: 19 April)

Date Brightness Start Highest point End Pass type
(mag) Time Alt. Az. Time Alt. Az. Time Alt. Az.
19 Apr - 05:02:16 10° SSW 05:08:28 28° SSE 05:14:21 10° E daylight
19 Apr - 06:55:36 10° WSW 07:02:53 89° NNW 07:09:42 10° ENE daylight
19 Apr - 08:51:33 10° W 08:57:07 26° NNW 09:02:28 10° NNE daylight
19 Apr - 16:34:21 10° NNW 16:40:00 28° NNE 16:45:54 10° E visible
19 Apr - 18:27:16 10° WNW 18:34:15 85° SSW 18:41:44 10° ESE visible
19 Apr - 20:22:50 10° W 20:28:46 26° SSW 20:34:58 10° SSE night (unlit)
20 Apr - 04:08:53 10° SSW 04:14:22 21° SSE 04:19:38 10° ESE daylight
20 Apr - 06:01:38 10° SW 06:09:01 67° SSE 06:15:55 10° ENE daylight
20 Apr - 07:56:49 10° W 08:03:13 36° NNW 08:09:18 10° NE daylight
20 Apr - 09:56:35 10° NNW 09:58:02 11° NNW 09:59:28 10° N daylight
20 Apr - 15:41:20 10° NNW 15:46:03 20° NNE 15:50:56 10° ENE daylight
20 Apr - 17:33:38 10° NW 17:40:23 70° NNE 17:47:38 10° ESE visible
20 Apr - 19:28:21 10° W 19:34:43 35° SSW 19:41:28 10° SE visible
20 Apr - 21:27:34 10° SW 21:29:57 12° SSW 21:32:22 10° S night (unlit)
21 Apr - 03:15:43 10° SSW 03:20:09 16° SSE 03:24:27 10° ESE visible
21 Apr - 05:07:49 10° SW 05:15:05 49° SSE 05:21:56 10° ENE daylight
21 Apr - 07:02:19 10° WSW 07:09:21 50° NNW 07:15:58 10° NE daylight
21 Apr - 09:00:11 10° WNW 09:03:56 15° NNW 09:07:34 10° N daylight
21 Apr - 14:48:36 10° N 14:52:03 15° NNE 14:55:33 10° NE daylight
21 Apr - 16:40:09 10° NW 16:46:34 50° NNE 16:53:22 10° ESE visible
21 Apr - 18:34:08 10° WNW 18:40:45 48° SSW 18:47:48 10° SE visible
21 Apr - 20:31:37 10° WSW 20:35:39 15° SSW 20:39:47 10° S night (unlit)
22 Apr - 02:23:03 10° S 02:25:49 12° SSE 02:28:33 10° SE visible
22 Apr - 04:14:08 10° SW 04:21:05 36° SSE 04:27:41 10° E daylight
22 Apr - 06:08:01 10° WSW 06:15:28 70° NNW 06:22:27 10° NE daylight
22 Apr - 08:04:46 10° WNW 08:09:53 21° NNW 08:14:49 10° NNE daylight
22 Apr - 13:56:54 10° N 13:57:57 10° NNE 13:58:59 10° NNE daylight
22 Apr - 15:46:49 10° NW 15:52:44 35° NNE 15:58:55 10° E daylight
22 Apr - 17:40:11 10° WNW 17:46:52 66° SSW 17:54:01 10° SE visible
22 Apr - 19:36:28 10° WSW 19:41:28 20° SSW 19:46:40 10° SSE visible
23 Apr - 03:20:36 10° SSW 03:27:00 27° SSE 03:33:10 10° E visible
23 Apr - 05:13:53 10° WSW 05:21:34 86° SSE 05:28:47 10° ENE daylight
23 Apr - 07:09:44 10° W 07:15:54 29° NNW 07:21:46 10° NNE daylight
23 Apr - 14:53:39 10° NNW 14:58:52 25° NNE 15:04:15 10° E daylight
23 Apr - 16:46:25 10° WNW 16:53:03 90° NNE 17:00:06 10° ESE visible
23 Apr - 18:41:45 10° W 18:47:24 27° SSW 18:53:20 10° SSE visible
24 Apr - 02:27:15 10° SSW 02:32:49 21° SSE 02:38:16 10° ESE visible
24 Apr - 04:19:56 10° SW 04:27:37 64° SSE 04:34:53 10° ENE daylight
24 Apr - 06:15:01 10° W 06:21:57 40° NNW 06:28:30 10° NE daylight
24 Apr - 08:14:01 10° NW 08:16:48 12° NNW 08:19:33 10° N daylight
24 Apr - 14:00:39 10° NNW 14:04:57 18° NNE 14:09:17 10° ENE daylight
24 Apr - 15:52:48 10° NW 15:59:15 65° NNE 16:06:03 10° ESE daylight
24 Apr - 17:47:22 10° W 17:53:26 36° SSW 17:59:51 10° SE visible
24 Apr - 19:46:28 10° SW 19:48:29 11° SSW 19:50:33 10° S visible
25 Apr - 01:34:12 10° S 01:38:34 16° SSE 01:42:54 10° ESE visible
25 Apr - 03:26:08 10° SW 03:33:36 47° SSE 03:40:46 10° E daylight
25 Apr - 05:20:31 10° WSW 05:28:00 55° NNW 05:35:04 10° NE daylight
25 Apr - 07:18:06 10° WNW 07:22:39 17° NNW 07:27:04 10° NNE daylight
25 Apr - 13:07:59 10° N 13:10:55 13° NNE 13:13:52 10° NE daylight
25 Apr - 14:59:20 10° NW 15:05:30 45° NNE 15:11:51 10° E daylight
25 Apr - 16:53:13 10° WNW 16:59:34 49° SSW 17:06:15 10° SE visible
25 Apr - 18:50:33 10° SW 18:54:16 15° SSW 18:58:06 10° S visible
26 Apr - 00:41:46 10° S 00:44:13 12° SSE 00:46:40 10° SE visible
26 Apr - 02:32:30 10° SW 02:39:32 35° SSE 02:46:23 10° E visible
26 Apr - 04:26:14 10° WSW 04:34:02 76° NNW 04:41:27 10° NE daylight
26 Apr - 06:22:46 10° WNW 06:28:34 24° NNW 06:34:07 10° NNE daylight
26 Apr - 14:06:01 10° NW 14:11:42 32° NNE 14:17:27 10° E daylight
26 Apr - 15:59:17 10° WNW 16:05:45 69° SSW 16:12:32 10° SE visible
26 Apr - 17:55:27 10° WSW 18:00:10 20° SSW 18:05:05 10° SSE visible
27 Apr - 01:39:03 10° SSW 01:45:24 26° SSE 01:51:41 10° E visible
27 Apr - 03:32:10 10° WSW 03:40:03 81° SSE 03:47:39 10° ENE daylight
27 Apr - 05:27:49 10° W 05:34:31 32° NNW 05:40:56 10° NNE daylight
27 Apr - 07:28:24 10° NNW 07:29:42 10° NNW 07:31:00 10° N daylight
27 Apr - 13:12:48 10° NNW 13:17:50 23° NNE 13:22:51 10° ENE daylight
27 Apr - 15:05:32 10° WNW 15:12:00 85° NNE 15:18:41 10° ESE daylight
27 Apr - 17:00:46 10° W 17:06:11 27° SSW 17:11:50 10° SSE visible
28 Apr - 00:45:50 10° SSW 00:51:13 20° SSE 00:56:35 10° ESE visible
28 Apr - 02:38:16 10° SW 02:46:02 60° SSE 02:53:37 10° ENE visible
28 Apr - 04:33:09 10° W 04:40:29 44° NNW 04:47:32 10° NE daylight
28 Apr - 06:31:36 10° NW 06:35:26 14° NNW 06:39:11 10° N daylight
28 Apr - 12:19:46 10° NNW 12:23:52 17° NNE 12:27:56 10° ENE daylight
28 Apr - 14:11:55 10° NW 14:18:16 60° NNE 14:24:43 10° ESE daylight
28 Apr - 16:06:25 10° W 16:12:19 37° SSW 16:18:27 10° SE visible
28 Apr - 18:05:38 10° SW 18:07:10 11° SSW 18:08:43 10° S visible
